Eindhoven, Netherlands

1:07 PM CEST on May 29, 2017 (GMT +0200)
Eindhoven Air Base

Weather History for EHEH - January, 2014

Change the Weather History Date:

Saturday, January 11, 2014

  Actual Average Record
Temperature  
Mean Temperature 39 °F -  
Max Temperature 45 °F 42 °F 53 °F (1998)
Min Temperature 33 °F 31 °F 17 °F (2003)
Degree Days  
Heating Degree Days 26    
Moisture  
Dew Point 37 °F    
Average Humidity 87    
Maximum Humidity 93    
Minimum Humidity 68    
Precipitation  
Precipitation 0.03 in - - ()
Sea Level Pressure  
Sea Level Pressure 30.03 in    
Wind  
Wind Speed 10 mph ()    
Max Wind Speed 16 mph    
Max Gust Speed -    
Visibility 6.2 miles    
Events Rain    
Averages and records for this station are not official NWS values.
T = Trace of Precipitation, MM = Missing Value Source: Averaged Metar Reports

Daily Weather History Graph

Daily Weather History Graph

Search for Another Location

Airport or City:

Trip Planner

Search our weather history database for the weather conditions in past years. The results will help you decide how hot, cold, wet, or windy it might be!

Date:

Astronomy

Jan. 11, 2014 Rise Set
Actual Time 8:40 AM CET 4:52 PM CET
Civil Twilight 8:01 AM CET 5:31 PM CET
Nautical Twilight 7:18 AM CET 6:13 PM CET
Astronomical Twilight 6:38 AM CET 6:54 PM CET
Moon 1:32 PM CET (1/11) 4:22 AM CET (1/11)
Length of Visible Light 9h 30m
Length of Day
8h 12m
Waxing Gibbous, 81% of the Moon is Illuminated
Jan 11
Waxing Gibbous
Jan 16
Full
Jan 24
Last Quarter
Jan 30
New
Feb 6
First Quarter

Hourly Weather History & Observations

Time (CET) Temp. Windchill Dew Point Humidity Pressure Visibility Wind Dir Wind Speed Gust Speed Precip Events Conditions
12:00 AM 41 °F - 37 °F 81% 30.03 in 9 mi SSW 11.2 mph - -   Mostly Cloudy
12:25 AM 39.2 °F 32.5 °F 37.4 °F 93% 30.01 in 6.2 mi SSW 10.4 mph - N/A   Scattered Clouds
12:29 AM 41.0 °F 34.7 °F 37.4 °F 87% 30.01 in 6.2 mi SSW 10.4 mph - N/A   Mostly Cloudy
12:55 AM 41.0 °F 33.9 °F 37.4 °F 87% 30.01 in 6.2 mi SSW 12.7 mph - N/A   Overcast
1:00 AM 40 °F - 37 °F 84% 30.02 in 8 mi SSW 11.2 mph - -   Partly Cloudy
1:25 AM 41.0 °F 35.2 °F 37.4 °F 87% 30.01 in 6.2 mi SSW 9.2 mph - N/A   Overcast
1:55 AM 41.0 °F 36.4 °F 37.4 °F 87% 30.01 in 6.2 mi SSW 6.9 mph - N/A   Overcast
2:00 AM 40 °F - 36 °F 82% 30.01 in 9 mi SSW 8.9 mph - -   Overcast
2:21 AM 39.2 °F 33.0 °F 35.6 °F 87% 29.98 in 6.2 mi SSW 9.2 mph - N/A   Partly Cloudy
2:25 AM 39.2 °F 33.6 °F 35.6 °F 87% 29.98 in 6.2 mi South 8.1 mph - N/A   Partly Cloudy
2:40 AM 37.4 °F 32.8 °F 35.6 °F 93% 29.98 in 6.2 mi SSW 5.8 mph - N/A   Scattered Clouds
2:41 AM 37.4 °F 32.8 °F 35.6 °F 93% 29.98 in 6.2 mi SSW 5.8 mph - N/A   Mostly Cloudy
2:55 AM 37.4 °F 32.1 °F 35.6 °F 93% 29.98 in 6.2 mi South 6.9 mph - N/A   Mostly Cloudy
3:00 AM 38 °F - 36 °F 90% 30.01 in 7 mi SSW 6.7 mph - -   Partly Cloudy
3:25 AM 39.2 °F 32.5 °F 35.6 °F 87% 29.98 in 6.2 mi SW 10.4 mph - N/A   Overcast
3:55 AM 39.2 °F 31.6 °F 35.6 °F 87% 29.98 in 6.2 mi SW 12.7 mph - N/A   Overcast
4:00 AM 38 °F - 36 °F 90% 30.00 in 7 mi SSW 11.2 mph - -   Overcast
4:15 AM 39.2 °F 32.5 °F 35.6 °F 87% 29.98 in 6.2 mi SSW 10.4 mph - N/A   Overcast
4:16 AM 39.2 °F 32.5 °F 35.6 °F 87% 29.98 in 6.2 mi SSW 10.4 mph - N/A   Overcast
4:25 AM 39.2 °F 32.5 °F 35.6 °F 87% 29.98 in 6.2 mi SSW 10.4 mph - N/A   Overcast
4:55 AM 37.4 °F 30.3 °F 35.6 °F 93% 29.98 in 6.2 mi SSW 10.4 mph - N/A   Overcast
5:00 AM 38 °F - 36 °F 87% 29.99 in 7 mi SSW 11.2 mph - -   Overcast
5:25 AM 37.4 °F 31.4 °F 35.6 °F 93% 29.98 in 6.2 mi SSW 8.1 mph - N/A   Overcast
5:55 AM 37.4 °F 30.3 °F 35.6 °F 93% 29.95 in 6.2 mi SW 10.4 mph - N/A   Overcast
6:00 AM 38 °F - 36 °F 88% 29.98 in 7 mi SSW 8.9 mph - -   Overcast
6:25 AM 37.4 °F 31.4 °F 35.6 °F 93% 29.95 in 6.2 mi SW 8.1 mph - N/A   Overcast
6:55 AM 39.2 °F 33.6 °F 35.6 °F 87% 29.98 in 6.2 mi WSW 8.1 mph - N/A   Overcast
7:00 AM 38 °F - 36 °F 88% 29.98 in 7 mi SW 8.9 mph - -   Partly Cloudy
7:25 AM 37.4 °F 32.8 °F 35.6 °F 93% 29.95 in 6.2 mi SSW 5.8 mph - N/A   Overcast
7:55 AM 39.2 °F 34.2 °F 35.6 °F 87% 29.95 in 5.6 mi SSW 6.9 mph - N/A   Overcast
8:00 AM 38 °F - 36 °F 90% 29.98 in 5 mi SSW 6.7 mph - -   Mist
8:25 AM 39.2 °F 34.2 °F 35.6 °F 87% 29.95 in 5.6 mi SSW 6.9 mph - N/A   Overcast
8:45 AM 39.2 °F 33.6 °F 37.4 °F 93% 29.95 in 5.6 mi SSW 8.1 mph - N/A   Overcast
8:49 AM 39.2 °F 33.6 °F 37.4 °F 93% 29.95 in 5.0 mi SSW 8.1 mph - N/A   Overcast
8:55 AM 39.2 °F 33.0 °F 37.4 °F 93% 29.95 in 5.0 mi SSW 9.2 mph - N/A   Overcast
9:00 AM 39 °F - 37 °F 88% 29.98 in 4 mi SW 8.9 mph - -   Mist
9:25 AM 39.2 °F 31.6 °F 37.4 °F 93% 29.95 in 3.7 mi SW 12.7 mph - N/A   Overcast
9:55 AM 39.2 °F 31.6 °F 37.4 °F 93% 29.98 in 3.1 mi SW 12.7 mph - N/A   Overcast
10:00 AM 39 °F - 37 °F 91% 29.98 in 3 mi SW 13.4 mph - -   Mist
10:25 AM 39.2 °F 31.6 °F 37.4 °F 93% 29.98 in 4.3 mi SW 12.7 mph - N/A   Mostly Cloudy
10:33 AM 41.0 °F 34.3 °F 37.4 °F 87% 29.98 in 5.0 mi SW 11.5 mph - N/A   Overcast
10:44 AM 41.0 °F 34.3 °F 37.4 °F 87% 29.98 in 5.6 mi SW 11.5 mph - N/A   Mostly Cloudy
10:55 AM 41.0 °F 34.7 °F 37.4 °F 87% 29.98 in 5.6 mi SSW 10.4 mph - N/A   Mostly Cloudy
11:00 AM 41 °F - 38 °F 85% 29.99 in 6 mi SSW 11.2 mph - -   Mostly Cloudy
11:08 AM 41.0 °F 33.9 °F 37.4 °F 87% 29.98 in 6.2 mi SSW 12.7 mph - N/A   Overcast
11:25 AM 41.0 °F 33.5 °F 37.4 °F 87% 29.98 in 6.2 mi SW 13.8 mph - N/A   Mostly Cloudy
11:55 AM 42.8 °F 35.8 °F 39.2 °F 87% 29.98 in 5.0 mi SW 13.8 mph - N/A   Light Drizzle
11:58 AM 42.8 °F 35.4 °F 39.2 °F 87% 29.98 in 4.3 mi SW 15.0 mph - N/A   Light Drizzle
12:00 PM 43 °F - 39 °F 82% 29.99 in 6 mi SW 13.4 mph - - Rain Light Drizzle
12:02 PM 42.8 °F 35.8 °F 39.2 °F 87% 29.98 in 6.2 mi SW 13.8 mph - N/A   Overcast
12:11 PM 42.8 °F 36.2 °F 39.2 °F 87% 29.98 in 6.2 mi SW 12.7 mph - N/A   Overcast
12:16 PM 42.8 °F 36.2 °F 39.2 °F 87% 29.98 in 6.2 mi SW 12.7 mph - N/A   Overcast
12:20 PM 42.8 °F 35.8 °F 39.2 °F 87% 29.98 in 6.2 mi SW 13.8 mph - N/A   Mostly Cloudy
12:25 PM 42.8 °F 35.4 °F 39.2 °F 87% 29.98 in 3.7 mi SW 15.0 mph - N/A Rain Light Rain
12:26 PM 42.8 °F 35.4 °F 39.2 °F 87% 29.98 in 5.6 mi SW 15.0 mph - N/A Rain Light Rain
12:44 PM 42.8 °F 35.4 °F 41.0 °F 93% 29.98 in 3.1 mi SW 15.0 mph - N/A Rain Light Rain Showers
12:51 PM 42.8 °F 35.4 °F 41.0 °F 93% 29.98 in - WSW 15.0 mph - N/A Rain Light Rain Showers
12:55 PM 42.8 °F 35.8 °F 41.0 °F 93% 29.98 in 3.1 mi WSW 13.8 mph - N/A Rain Light Rain Showers
1:00 PM 43 °F - 41 °F 89% 29.99 in 3 mi WSW 15.7 mph - - Rain Light Rain Showers
1:07 PM 42.8 °F 35.1 °F 41.0 °F 93% 29.98 in 3.1 mi WSW 16.1 mph - N/A Rain Light Rain
1:23 PM 44.6 °F 38.4 °F 41.0 °F 87% 29.95 in 3.7 mi WSW 12.7 mph - N/A   Mostly Cloudy
1:25 PM 44.6 °F 38.4 °F 41.0 °F 87% 29.95 in 3.7 mi WSW 12.7 mph - N/A   Mostly Cloudy
1:55 PM 44.6 °F 38.4 °F 41.0 °F 87% 29.98 in 3.7 mi WSW 12.7 mph - N/A   Mostly Cloudy
2:00 PM 44 °F - 42 °F 88% 30.00 in 4 mi WSW 13.4 mph - - Rain Rain
2:00 PM 44.6 °F 38.1 °F 41.0 °F 87% 29.98 in 3.7 mi WSW 13.8 mph - N/A   Overcast
2:15 PM 44.6 °F 38.1 °F 42.8 °F 93% 29.98 in 4.3 mi WSW 13.8 mph - N/A   Mostly Cloudy
2:25 PM 44.6 °F 37.8 °F 42.8 °F 93% 29.98 in 5.0 mi West 15.0 mph - N/A   Mostly Cloudy
2:32 PM 46.4 °F 40.7 °F 42.8 °F 87% 29.98 in 5.0 mi West 12.7 mph - N/A   Mostly Cloudy
2:39 PM 46.4 °F 40.7 °F 42.8 °F 87% 29.98 in 5.0 mi West 12.7 mph - N/A   Overcast
2:42 PM 46.4 °F 40.7 °F 42.8 °F 87% 29.98 in 5.0 mi West 12.7 mph - N/A   Mostly Cloudy
2:43 PM 46.4 °F 40.4 °F 42.8 °F 87% 29.98 in 5.0 mi West 13.8 mph - N/A   Mostly Cloudy
2:48 PM 46.4 °F 40.4 °F 41.0 °F 81% 30.01 in 6.2 mi West 13.8 mph - N/A   Mostly Cloudy
2:55 PM 46.4 °F 40.4 °F 41.0 °F 81% 30.01 in 6.2 mi West 13.8 mph - N/A   Mostly Cloudy
2:58 PM 46.4 °F 40.4 °F 41.0 °F 81% 30.01 in 6.2 mi West 13.8 mph - N/A   Mostly Cloudy
2:59 PM 46.4 °F 41.1 °F 41.0 °F 81% 30.01 in 6.2 mi WNW 11.5 mph - N/A   Mostly Cloudy
3:00 PM 46 °F - 40 °F 73% 30.02 in 12 mi WNW 11.2 mph - -   Partly Cloudy
3:02 PM 46.4 °F 40.7 °F 39.2 °F 76% 30.01 in 6.2 mi WNW 12.7 mph - N/A   Scattered Clouds
3:09 PM 46.4 °F 40.4 °F 39.2 °F 76% 30.01 in 6.2 mi WNW 13.8 mph - N/A   Partly Cloudy
3:25 PM 46.4 °F 40.4 °F 39.2 °F 76% 30.01 in 6.2 mi WNW 13.8 mph - N/A   Unknown
3:26 PM 46.4 °F 40.7 °F 39.2 °F 76% 30.01 in 6.2 mi WNW 12.7 mph - N/A   Unknown
3:55 PM 44.6 °F 40.2 °F 37.4 °F 76% 30.04 in 6.2 mi West 8.1 mph - N/A   Unknown
4:00 PM 45 °F - 38 °F 68% 30.06 in 16 mi West 8.9 mph - -   Partly Cloudy
4:25 PM 44.6 °F 40.2 °F 39.2 °F 81% 30.04 in 6.2 mi West 8.1 mph - N/A   Partly Cloudy
4:55 PM 44.6 °F 39.2 °F 37.4 °F 76% 30.06 in 6.2 mi West 10.4 mph - N/A   Scattered Clouds
5:00 PM 44 °F - 38 °F 71% 30.09 in 12 mi West 11.2 mph - -   Partly Cloudy
5:02 PM 42.8 °F 37.0 °F 37.4 °F 81% 30.06 in 6.2 mi West 10.4 mph - N/A   Scattered Clouds
5:25 PM 42.8 °F 37.5 °F 37.4 °F 81% 30.09 in 6.2 mi West 9.2 mph - N/A   Partly Cloudy
5:55 PM 41.0 °F 36.4 °F 37.4 °F 87% 30.09 in 6.2 mi West 6.9 mph - N/A   Partly Cloudy
5:59 PM 41.0 °F 36.4 °F 37.4 °F 87% 30.09 in 6.2 mi West 6.9 mph - N/A   Scattered Clouds
6:00 PM 41 °F - 37 °F 80% 30.13 in 12 mi West 6.7 mph - -   Partly Cloudy
6:25 PM 41.0 °F 36.4 °F 35.6 °F 81% 30.12 in 6.2 mi WSW 6.9 mph - N/A   Mostly Cloudy
6:49 PM 39.2 °F 35.0 °F 35.6 °F 87% 30.12 in 6.2 mi WSW 5.8 mph - N/A   Partly Cloudy
6:55 PM 39.2 °F 35.0 °F 35.6 °F 87% 30.12 in 6.2 mi WSW 5.8 mph - N/A   Partly Cloudy
7:00 PM 38 °F - 35 °F 83% 30.16 in 12 mi WSW 4.5 mph - -   Partly Cloudy
7:25 PM 37.4 °F 32.8 °F 35.6 °F 93% 30.15 in 6.2 mi WSW 5.8 mph - N/A   Partly Cloudy
7:55 PM 37.4 °F 32.1 °F 33.8 °F 87% 30.15 in 6.2 mi WSW 6.9 mph - N/A   Unknown
8:00 PM 36 °F - 33 °F 87% 30.17 in 11 mi WSW 6.7 mph - -  
8:25 PM 37.4 °F 32.1 °F 33.8 °F 87% 30.15 in 6.2 mi WSW 6.9 mph - N/A   Unknown
8:55 PM 39.2 °F 33.6 °F 35.6 °F 87% 30.18 in 6.2 mi WSW 8.1 mph - N/A   Overcast
9:00 PM 38 °F - 35 °F 86% 30.20 in 12 mi WSW 6.7 mph - -   Partly Cloudy
9:25 PM 37.4 °F 32.8 °F 33.8 °F 87% 30.18 in 6.2 mi WSW 5.8 mph - N/A   Unknown
9:55 PM 37.4 °F 32.8 °F 33.8 °F 87% 30.18 in 6.2 mi WSW 5.8 mph - N/A   Partly Cloudy
10:00 PM 37 °F - 34 °F 86% 30.22 in 11 mi WSW 6.7 mph - -   Scattered Clouds
10:25 PM 35.6 °F 30.7 °F 32.0 °F 87% 30.21 in 6.2 mi SW 5.8 mph - N/A   Unknown
10:41 PM 35.6 °F 29.9 °F 33.8 °F 93% 30.21 in 6.2 mi SW 6.9 mph - N/A   Unknown
10:55 PM 33.8 °F 27.7 °F 32.0 °F 93% 30.21 in 6.2 mi SW 6.9 mph - N/A   Unknown
11:00 PM 34 °F - 32 °F 90% 30.24 in 9 mi SW 8.9 mph - -  
11:25 PM 33.8 °F 27.7 °F 32.0 °F 93% 30.21 in 6.2 mi SW 6.9 mph - N/A   Unknown
11:55 PM 35.6 °F 29.9 °F 33.8 °F 93% 30.24 in 6.2 mi WSW 6.9 mph - N/A   Unknown